This is the latest recevied weather packets stored in our database for station/object OK1KZE-6. If no packets are shown the sender has not sent any weather packets the latest 10 day(s).
| Time | Temp. | Humidity | Pressure | Rain* | Wind** | Luminosity | Snow |
|---|---|---|---|---|---|---|---|
| 1777987207 | 22.22° C | 43% | 1009.2 hPa | - | - | - | - |
| 1777986908 | 21.67° C | 45% | 1009.1 hPa | - | - | - | - |
| 1777986609 | 22.22° C | 45% | 1008.8 hPa | - | - | - | - |
| 1777986307 | 22.78° C | 45% | 1009.2 hPa | - | - | - | - |
| 1777986008 | 22.22° C | 46% | 1009.2 hPa | - | - | - | - |
| 1777985708 | 21.67° C | 46% | 1009.3 hPa | - | - | - | - |
| 1777985408 | 22.22° C | 47% | 1009.6 hPa | - | - | - | - |
| 1777985108 | 22.22° C | 47% | 1009.4 hPa | - | - | - | - |
| 1777984808 | 21.67° C | 48% | 1009.4 hPa | - | - | - | - |
| 1777984508 | 22.22° C | 47% | 1009.3 hPa | - | - | - | - |
| 1777984208 | 22.22° C | 48% | 1009.5 hPa | - | - | - | - |
| 1777983908 | 22.22° C | 49% | 1009.3 hPa | - | - | - | - |
| 1777983607 | 22.22° C | 50% | 1009.4 hPa | - | - | - | - |
| 1777983307 | 21.67° C | 49% | 1009.6 hPa | - | - | - | - |
| 1777983008 | -17.78° C | 100% | 1009.6 hPa | - | - | - | - |
| 1777982708 | -17.78° C | 100% | 1009.7 hPa | - | - | - | - |
| 1777982407 | -1.11° C | 100% | 1009.8 hPa | - | - | - | - |
| 1777982107 | -1.11° C | 100% | 1009.7 hPa | - | - | - | - |
| 1777981807 | -1.11° C | 100% | 1009.8 hPa | - | - | - | - |
| 1777981507 | -1.11° C | 100% | 1009.7 hPa | - | - | - | - |
| 1777980909 | -1.11° C | 100% | 1010 hPa | - | - | - | - |
| 1777980608 | -1.11° C | 100% | 1009.9 hPa | - | - | - | - |
| 1777980309 | -1.11° C | 100% | 1010.1 hPa | - | - | - | - |
| 1777980008 | -1.11° C | 100% | 1010.1 hPa | - | - | - | - |
| 1777979707 | -1.11° C | 100% | 1010.1 hPa | - | - | - | - |
* Rain since midnight (hover to see other rain measurements)
** Current wind speed in m/s (hover to see current wind gust speed)